| time (UTC) | temp F | wind direction | speed MPH | gust MPH | rain 1hr in | rain 24hr in | rain mn in | humidity % | barometer mb |
| 20260506071028 | 32 | 279 | 0.0 | 1.0 | 0.00 | 0.00 | 0.00 | 80 | 1016.8 |
| 20260506070525 | 32 | 233 | 0.0 | 1.0 | 0.00 | 0.00 | 0.00 | 80 | 1016.7 |
| 20260506062503 | 32 | 211 | 0.0 | 2.0 | 0.00 | 0.00 | 0.00 | 77 | 1016.7 |
| 20260506061959 | 32 | 301 | 1.0 | 2.0 | 0.00 | 0.00 | 0.00 | 77 | 1016.8 |
| 20260506061455 | 32 | 297 | 1.0 | 2.0 | 0.00 | 0.00 | 0.00 | 76 | 1016.7 |
| 20260506060953 | 32 | 307 | 1.0 | 2.0 | 0.00 | 0.00 | 0.00 | 76 | 1016.8 |
| 20260506060451 | 32 | 221 | 0.0 | 2.0 | 0.00 | 0.00 | 0.00 | 76 | 1016.9 |
| 20260506050920 | 33 | 251 | 1.0 | 1.0 | 0.00 | 0.00 | 0.00 | 73 | 1016.8 |
| 20260506050418 | 33 | 274 | 2.0 | 5.0 | 0.00 | 0.00 | 0.00 | 73 | 1016.9 |
| 20260506044908 | 33 | 345 | 2.0 | 6.0 | 0.00 | 0.00 | 0.00 | 72 | 1016.7 |
| 20260506044406 | 33 | 332 | 1.0 | 3.0 | 0.00 | 0.00 | 0.00 | 72 | 1016.8 |
| 20260506043903 | 34 | 236 | 1.0 | 2.0 | 0.00 | 0.00 | 0.00 | 72 | 1016.8 |
| 20260506043400 | 34 | 324 | 2.0 | 7.0 | 0.00 | 0.00 | 0.00 | 71 | 1016.8 |
| 20260506042858 | 34 | 56 | 1.0 | 2.0 | 0.00 | 0.00 | 0.00 | 71 | 1016.8 |
| 20260506042357 | 34 | 250 | 1.0 | 5.0 | 0.00 | 0.00 | 0.00 | 71 | 1016.7 |
| 20260506041855 | 35 | 277 | 3.0 | 7.0 | 0.00 | 0.00 | 0.00 | 71 | 1016.9 |
| 20260506041354 | 35 | 303 | 2.0 | 6.0 | 0.00 | 0.00 | 0.00 | 70 | 1016.6 |
| 20260506040849 | 35 | 225 | 2.0 | 5.0 | 0.00 | 0.00 | 0.00 | 70 | 1016.9 |
| 20260506040347 | 35 | 179 | 1.0 | 5.0 | 0.00 | 0.00 | 0.00 | 70 | 1016.6 |
| 20260506035843 | 35 | 196 | 1.0 | 7.0 | 0.00 | 0.00 | 0.00 | 69 | 1017.0 |
| 20260506035340 | 35 | 32 | 2.0 | 6.0 | 0.00 | 0.00 | 0.00 | 69 | 1016.5 |
| 20260506034837 | 35 | 306 | 4.0 | 9.0 | 0.00 | 0.00 | 0.00 | 69 | 1016.8 |
| 20260506034334 | 35 | 274 | 1.0 | 7.0 | 0.00 | 0.00 | 0.00 | 69 | 1016.9 |
| 20260506033831 | 35 | 324 | 4.0 | 6.0 | 0.00 | 0.00 | 0.00 | 69 | 1016.9 |
| 20260506033328 | 35 | 301 | 2.0 | 3.0 | 0.00 | 0.00 | 0.00 | 69 | 1016.7 |
| 20260506032825 | 35 | 182 | 1.0 | 3.0 | 0.00 | 0.00 | 0.00 | 69 | 1016.9 |
| 20260506032322 | 35 | 189 | 1.0 | 5.0 | 0.00 | 0.00 | 0.00 | 69 | 1016.8 |
| 20260506031819 | 35 | 131 | 2.0 | 3.0 | 0.00 | 0.00 | 0.00 | 69 | 1016.5 |
| 20260506031316 | 35 | 222 | 2.0 | 3.0 | 0.00 | 0.00 | 0.00 | 69 | 1016.7 |
| 20260506030814 | 36 | 211 | 0.0 | 5.0 | 0.00 | 0.00 | 0.00 | 68 | 1016.6 |
| 20260506030312 | 36 | 259 | 1.0 | 3.0 | 0.00 | 0.00 | 0.00 | 68 | 1016.7 |
| 20260506025808 | 36 | 303 | 3.0 | 6.0 | 0.00 | 0.00 | 0.00 | 67 | 1016.5 |
| 20260506025306 | 36 | 298 | 3.0 | 7.0 | 0.00 | 0.00 | 0.00 | 67 | 1016.5 |
| 20260506024802 | 36 | 219 | 1.0 | 2.0 | 0.00 | 0.00 | 0.00 | 67 | 1016.5 |
| 20260506024258 | 36 | 240 | 1.0 | 3.0 | 0.00 | 0.00 | 0.00 | 67 | 1016.2 |
| 20260506023754 | 36 | 341 | 0.0 | 5.0 | 0.00 | 0.00 | 0.00 | 67 | 1016.5 |
| 20260506023252 | 36 | 279 | 1.0 | 5.0 | 0.00 | 0.00 | 0.00 | 66 | 1016.3 |
| 20260506022748 | 36 | 285 | 2.0 | 6.0 | 0.00 | 0.00 | 0.00 | 66 | 1016.5 |
| 20260506022246 | 36 | 101 | 2.0 | 5.0 | 0.00 | 0.00 | 0.00 | 66 | 1016.2 |
| 20260506021744 | 36 | 175 | 2.0 | 7.0 | 0.00 | 0.00 | 0.00 | 65 | 1016.3 |
| 20260506021241 | 36 | 289 | 2.0 | 7.0 | 0.00 | 0.00 | 0.00 | 65 | 1016.2 |
| 20260506020737 | 36 | 224 | 2.0 | 6.0 | 0.00 | 0.00 | 0.00 | 65 | 1016.1 |
| 20260506020235 | 37 | 230 | 3.0 | 8.0 | 0.00 | 0.00 | 0.00 | 64 | 1016.1 |
| 20260506015733 | 37 | 318 | 3.0 | 6.0 | 0.00 | 0.00 | 0.00 | 64 | 1015.9 |
| 20260506015230 | 37 | 209 | 2.0 | 8.0 | 0.00 | 0.00 | 0.00 | 64 | 1016.1 |
| 20260506014727 | 37 | 240 | 1.0 | 3.0 | 0.00 | 0.00 | 0.00 | 65 | 1016.1 |
| 20260506014223 | 37 | 74 | 1.0 | 5.0 | 0.00 | 0.00 | 0.00 | 65 | 1016.2 |
| 20260506013721 | 37 | 299 | 1.0 | 3.0 | 0.00 | 0.00 | 0.00 | 65 | 1015.9 |
| 20260506013218 | 37 | 345 | 3.0 | 3.0 | 0.00 | 0.00 | 0.00 | 65 | 1015.8 |
| 20260506012714 | 37 | 315 | 1.0 | 3.0 | 0.00 | 0.00 | 0.00 | 65 | 1015.7 |
| 20260506012211 | 37 | 235 | 1.0 | 2.0 | 0.00 | 0.00 | 0.00 | 64 | 1015.7 |
| 20260506011708 | 37 | 301 | 2.0 | 5.0 | 0.00 | 0.00 | 0.00 | 64 | 1015.7 |
| 20260506011204 | 37 | 325 | 3.0 | 5.0 | 0.00 | 0.00 | 0.00 | 64 | 1015.7 |
| 20260506010703 | 37 | 231 | 1.0 | 5.0 | 0.00 | 0.00 | 0.00 | 63 | 1015.6 |
| 20260506010200 | 37 | 233 | 1.0 | 8.0 | 0.00 | 0.00 | 0.00 | 63 | 1015.5 |
| 20260506005657 | 37 | 356 | 4.0 | 7.0 | 0.00 | 0.00 | 0.00 | 63 | 1015.6 |
| 20260506005153 | 37 | 229 | 2.0 | 6.0 | 0.00 | 0.00 | 0.00 | 62 | 1015.4 |
| 20260506004649 | 38 | 296 | 4.0 | 7.0 | 0.00 | 0.00 | 0.00 | 62 | 1015.4 |
| 20260506004147 | 38 | 336 | 3.0 | 8.0 | 0.00 | 0.00 | 0.00 | 62 | 1015.5 |
| 20260506003643 | 38 | 278 | 3.0 | 6.0 | 0.00 | 0.00 | 0.00 | 61 | 1015.1 |
| 20260506003139 | 38 | 216 | 2.0 | 5.0 | 0.00 | 0.00 | 0.00 | 61 | 1015.4 |
| 20260506002636 | 38 | 277 | 2.0 | 7.0 | 0.00 | 0.00 | 0.00 | 61 | 1015.1 |
| 20260506002132 | 38 | 83 | 4.0 | 9.0 | 0.00 | 0.00 | 0.00 | 61 | 1015.2 |
| 20260506001627 | 38 | 213 | 1.0 | 6.0 | 0.00 | 0.00 | 0.00 | 61 | 1015.1 |
| 20260506001125 | 38 | 315 | 1.0 | 5.0 | 0.00 | 0.00 | 0.00 | 61 | 1015.4 |
| 20260506000622 | 38 | 227 | 2.0 | 6.0 | 0.00 | 0.00 | 0.00 | 62 | 1015.3 |
| 20260506000120 | 38 | 305 | 2.0 | 8.0 | 0.00 | 0.00 | 0.00 | 61 | 1015.1 |
| 20260505235618 | 38 | 247 | 1.0 | 3.0 | 0.00 | 0.00 | 0.00 | 62 | 1015.2 |
| 20260505235114 | 38 | 341 | 3.0 | 8.0 | 0.00 | 0.00 | 0.00 | 62 | 1015.1 |
| 20260505234612 | 38 | 258 | 3.0 | 6.0 | 0.00 | 0.00 | 0.00 | 61 | 1015.3 |
| 20260505234108 | 38 | 191 | 2.0 | 8.0 | 0.00 | 0.00 | 0.00 | 61 | 1015.0 |
| 20260505233606 | 38 | 226 | 1.0 | 5.0 | 0.00 | 0.00 | 0.00 | 62 | 1015.2 |
| 20260505233103 | 38 | 329 | 3.0 | 8.0 | 0.00 | 0.00 | 0.00 | 61 | 1015.2 |
| 20260505232601 | 38 | 301 | 2.0 | 8.0 | 0.00 | 0.00 | 0.00 | 61 | 1015.0 |
| 20260505232058 | 38 | 355 | 3.0 | 7.0 | 0.00 | 0.00 | 0.00 | 61 | 1015.2 |
| 20260505231554 | 38 | 286 | 2.0 | 5.0 | 0.00 | 0.00 | 0.00 | 61 | 1015.2 |
| 20260505231053 | 38 | 241 | 3.0 | 9.0 | 0.00 | 0.00 | 0.00 | 60 | 1015.1 |
| 20260505230550 | 38 | 298 | 4.0 | 6.0 | 0.00 | 0.00 | 0.00 | 61 | 1015.3 |
| 20260505230046 | 38 | 27 | 3.0 | 7.0 | 0.00 | 0.00 | 0.00 | 61 | 1014.8 |
| 20260505225544 | 38 | 236 | 2.0 | 7.0 | 0.00 | 0.00 | 0.00 | 62 | 1014.9 |
| 20260505225039 | 38 | 258 | 6.0 | 9.0 | 0.00 | 0.00 | 0.00 | 62 | 1015.0 |
| 20260505224537 | 38 | 127 | 4.0 | 8.0 | 0.00 | 0.00 | 0.00 | 61 | 1015.2 |
| 20260505224034 | 38 | 295 | 3.0 | 6.0 | 0.00 | 0.00 | 0.00 | 60 | 1015.1 |
| 20260505223531 | 38 | 22 | 3.0 | 5.0 | 0.00 | 0.00 | 0.00 | 59 | 1015.2 |
| 20260505223027 | 38 | 92 | 1.0 | 6.0 | 0.00 | 0.00 | 0.00 | 59 | 1015.1 |
| 20260505222523 | 38 | 226 | 2.0 | 7.0 | 0.00 | 0.00 | 0.00 | 60 | 1015.0 |
| 20260505222019 | 38 | 326 | 3.0 | 7.0 | 0.00 | 0.00 | 0.00 | 61 | 1015.1 |
| 20260505221517 | 38 | 338 | 1.0 | 7.0 | 0.00 | 0.00 | 0.00 | 61 | 1015.2 |
| 20260505221014 | 38 | 259 | 1.0 | 7.0 | 0.00 | 0.00 | 0.00 | 61 | 1015.3 |
| 20260505220511 | 38 | 216 | 2.0 | 3.0 | 0.00 | 0.00 | 0.00 | 60 | 1015.1 |
| 20260505220009 | 38 | 278 | 4.0 | 6.0 | 0.00 | 0.00 | 0.00 | 61 | 1015.0 |
| 20260505215507 | 37 | 311 | 5.0 | 7.0 | 0.00 | 0.00 | 0.00 | 61 | 1014.8 |
| 20260505215004 | 38 | 296 | 3.0 | 6.0 | 0.00 | 0.00 | 0.00 | 62 | 1015.0 |
| 20260505214502 | 38 | 222 | 2.0 | 6.0 | 0.00 | 0.00 | 0.00 | 61 | 1014.8 |
| 20260505213958 | 37 | 189 | 1.0 | 6.0 | 0.00 | 0.00 | 0.00 | 61 | 1015.1 |
| 20260505213456 | 37 | 230 | 2.0 | 3.0 | 0.00 | 0.00 | 0.00 | 62 | 1015.1 |
| 20260505212952 | 37 | 253 | 3.0 | 6.0 | 0.00 | 0.00 | 0.00 | 62 | 1015.1 |
| 20260505212449 | 38 | 244 | 3.0 | 5.0 | 0.00 | 0.00 | 0.00 | 61 | 1014.9 |
| 20260505211945 | 38 | 73 | 3.0 | 5.0 | 0.00 | 0.00 | 0.00 | 61 | 1015.0 |
| 20260505211443 | 38 | 197 | 3.0 | 6.0 | 0.00 | 0.00 | 0.00 | 61 | 1015.0 |
| 20260505210939 | 37 | 297 | 2.0 | 5.0 | 0.00 | 0.00 | 0.00 | 61 | 1015.0 |
| 20260505210437 | 37 | 267 | 7.0 | 8.0 | 0.00 | 0.00 | 0.00 | 61 | 1015.1 |
| 20260505205933 | 37 | 266 | 2.0 | 7.0 | 0.00 | 0.00 | 0.00 | 61 | 1014.8 |
| 20260505205432 | 37 | 299 | 4.0 | 7.0 | 0.00 | 0.00 | 0.00 | 60 | 1014.9 |
| 20260505204928 | 38 | 319 | 3.0 | 5.0 | 0.00 | 0.00 | 0.00 | 59 | 1014.8 |
| 20260505204426 | 38 | 221 | 2.0 | 5.0 | 0.00 | 0.00 | 0.00 | 60 | 1014.7 |
| 20260505203923 | 37 | 2 | 6.0 | 8.0 | 0.00 | 0.00 | 0.00 | 60 | 1014.7 |
| 20260505203419 | 37 | 285 | 3.0 | 7.0 | 0.00 | 0.00 | 0.00 | 61 | 1014.8 |
| 20260505202916 | 37 | 244 | 3.0 | 7.0 | 0.00 | 0.00 | 0.00 | 61 | 1014.8 |
| 20260505202412 | 37 | 289 | 4.0 | 6.0 | 0.00 | 0.00 | 0.00 | 60 | 1014.8 |
| 20260505201909 | 37 | 266 | 3.0 | 5.0 | 0.00 | 0.00 | 0.00 | 61 | 1015.0 |
| 20260505201406 | 37 | 249 | 3.0 | 5.0 | 0.00 | 0.00 | 0.00 | 61 | 1015.0 |
| 20260505200904 | 37 | 281 | 3.0 | 8.0 | 0.00 | 0.00 | 0.00 | 62 | 1014.8 |
| 20260505200401 | 37 | 238 | 2.0 | 3.0 | 0.00 | 0.00 | 0.00 | 62 | 1014.8 |
| 20260505195856 | 37 | 228 | 4.0 | 7.0 | 0.00 | 0.00 | 0.00 | 61 | 1014.7 |
| 20260505195354 | 37 | 320 | 3.0 | 5.0 | 0.00 | 0.00 | 0.00 | 62 | 1014.8 |
| 20260505194851 | 36 | 210 | 1.0 | 6.0 | 0.00 | 0.00 | 0.00 | 63 | 1014.6 |
| 20260505194348 | 37 | 252 | 3.0 | 10.0 | 0.00 | 0.00 | 0.00 | 63 | 1014.7 |
| 20260505193843 | 37 | 268 | 1.0 | 8.0 | 0.00 | 0.00 | 0.00 | 62 | 1014.6 |
| 20260505193341 | 36 | 296 | 3.0 | 6.0 | 0.00 | 0.00 | 0.00 | 63 | 1014.4 |
| 20260505192838 | 36 | 249 | 4.0 | 8.0 | 0.00 | 0.00 | 0.00 | 62 | 1014.6 |
| 20260505192337 | 36 | 319 | 2.0 | 7.0 | 0.00 | 0.00 | 0.00 | 63 | 1014.3 |
| 20260505191834 | 36 | 226 | 3.0 | 10.0 | 0.00 | 0.00 | 0.00 | 63 | 1014.5 |
| 20260505191333 | 36 | 293 | 4.0 | 6.0 | 0.00 | 0.00 | 0.00 | 63 | 1014.6 |
| 20260505190829 | 37 | 302 | 3.0 | 7.0 | 0.00 | 0.00 | 0.00 | 62 | 1014.6 |
| 20260505190324 | 36 | 130 | 1.0 | 8.0 | 0.00 | 0.00 | 0.00 | 63 | 1014.5 |
| 20260505185820 | 37 | 55 | 3.0 | 6.0 | 0.00 | 0.00 | 0.00 | 59 | 1014.5 |
| 20260505185317 | 36 | 16 | 3.0 | 6.0 | 0.00 | 0.00 | 0.00 | 61 | 1014.6 |
| 20260505184813 | 36 | 316 | 4.0 | 9.0 | 0.00 | 0.00 | 0.00 | 62 | 1014.6 |
| 20260505184310 | 36 | 95 | 3.0 | 5.0 | 0.00 | 0.00 | 0.00 | 61 | 1014.4 |
| 20260505183807 | 36 | 152 | 7.0 | 9.0 | 0.00 | 0.00 | 0.00 | 62 | 1014.1 |
| 20260505183304 | 37 | 294 | 4.0 | 5.0 | 0.00 | 0.00 | 0.00 | 61 | 1014.0 |
| 20260505182801 | 36 | 327 | 5.0 | 8.0 | 0.00 | 0.00 | 0.00 | 62 | 1014.2 |
| 20260505182257 | 36 | 210 | 2.0 | 8.0 | 0.00 | 0.00 | 0.00 | 63 | 1014.2 |
| 20260505181754 | 36 | 5 | 3.0 | 7.0 | 0.00 | 0.00 | 0.00 | 64 | 1014.1 |
| 20260505181251 | 35 | 330 | 4.0 | 6.0 | 0.00 | 0.00 | 0.00 | 65 | 1014.2 |
| 20260505180748 | 35 | 309 | 4.0 | 7.0 | 0.00 | 0.00 | 0.00 | 64 | 1013.9 |
| 20260505180244 | 35 | 259 | 2.0 | 6.0 | 0.00 | 0.00 | 0.00 | 65 | 1013.8 |
| 20260505175741 | 35 | 235 | 3.0 | 9.0 | 0.00 | 0.00 | 0.00 | 65 | 1014.0 |
| 20260505175237 | 35 | 268 | 1.0 | 11.0 | 0.00 | 0.00 | 0.00 | 65 | 1014.0 |
| 20260505174734 | 35 | 266 | 5.0 | 7.0 | 0.00 | 0.00 | 0.00 | 65 | 1014.1 |
| 20260505174231 | 35 | 301 | 3.0 | 8.0 | 0.00 | 0.00 | 0.00 | 64 | 1014.2 |
| 20260505173727 | 36 | 300 | 5.0 | 6.0 | 0.00 | 0.00 | 0.00 | 62 | 1013.9 |
| 20260505173224 | 36 | 82 | 3.0 | 7.0 | 0.00 | 0.00 | 0.00 | 62 | 1014.0 |
| 20260505172721 | 35 | 257 | 1.0 | 5.0 | 0.00 | 0.00 | 0.00 | 66 | 1013.9 |
| 20260505172218 | 34 | 15 | 3.0 | 10.0 | 0.00 | 0.00 | 0.00 | 67 | 1013.8 |
| 20260505171718 | 35 | 16 | 4.0 | 8.0 | 0.00 | 0.00 | 0.00 | 68 | 1014.0 |
| 20260505171215 | 34 | 254 | 2.0 | 7.0 | 0.00 | 0.00 | 0.00 | 68 | 1013.8 |
| 20260505170712 | 35 | 274 | 3.0 | 6.0 | 0.00 | 0.00 | 0.00 | 67 | 1013.7 |
| 20260505170209 | 35 | 275 | 4.0 | 7.0 | 0.00 | 0.00 | 0.00 | 67 | 1013.7 |
| 20260505165704 | 35 | 111 | 1.0 | 8.0 | 0.00 | 0.00 | 0.00 | 67 | 1013.7 |
| 20260505165200 | 34 | 306 | 3.0 | 7.0 | 0.00 | 0.00 | 0.00 | 69 | 1013.8 |
| 20260505164655 | 35 | 17 | 6.0 | 10.0 | 0.00 | 0.00 | 0.00 | 68 | 1013.7 |
| 20260505164153 | 34 | 12 | 2.0 | 6.0 | 0.00 | 0.00 | 0.00 | 70 | 1013.7 |
| 20260505163651 | 34 | 90 | 4.0 | 8.0 | 0.00 | 0.00 | 0.00 | 70 | 1013.7 |
| 20260505163149 | 34 | 166 | 2.0 | 7.0 | 0.00 | 0.00 | 0.00 | 69 | 1013.4 |
| 20260505162646 | 33 | 12 | 3.0 | 6.0 | 0.00 | 0.00 | 0.00 | 70 | 1013.7 |
| 20260505162144 | 33 | 26 | 4.0 | 6.0 | 0.00 | 0.00 | 0.00 | 71 | 1013.7 |
| 20260505161640 | 32 | 353 | 3.0 | 7.0 | 0.00 | 0.00 | 0.00 | 72 | 1013.5 |
| 20260505161138 | 33 | 303 | 6.0 | 9.0 | 0.00 | 0.00 | 0.00 | 70 | 1013.5 |
| 20260505160636 | 33 | 218 | 4.0 | 7.0 | 0.00 | 0.00 | 0.00 | 70 | 1013.6 |
| 20260505160133 | 33 | 227 | 2.0 | 8.0 | 0.00 | 0.00 | 0.00 | 71 | 1013.7 |
| 20260505153112 | 31 | 230 | 2.0 | 7.0 | 0.00 | 0.00 | 0.00 | 78 | 1013.5 |
| 20260505152609 | 31 | 126 | 2.0 | 6.0 | 0.00 | 0.00 | 0.00 | 78 | 1013.3 |
| 20260505152104 | 31 | 5 | 2.0 | 8.0 | 0.00 | 0.00 | 0.00 | 80 | 1013.5 |
| 20260505151600 | 31 | 349 | 2.0 | 6.0 | 0.00 | 0.00 | 0.00 | 80 | 1013.3 |
| 20260505151058 | 31 | 228 | 2.0 | 5.0 | 0.00 | 0.00 | 0.00 | 79 | 1013.2 |
| 20260505150553 | 31 | 239 | 1.0 | 3.0 | 0.00 | 0.00 | 0.00 | 79 | 1013.6 |
| 20260505140519 | 31 | 260 | 3.0 | 6.0 | 0.00 | 0.00 | 0.00 | 75 | 1012.9 |
| 20260505124932 | 29 | 279 | 4.0 | 6.0 | 0.00 | 0.00 | 0.00 | 84 | 1011.9 |
| 20260505124429 | 29 | 291 | 3.0 | 7.0 | 0.00 | 0.00 | 0.00 | 85 | 1012.2 |
| 20260505123925 | 29 | 7 | 3.0 | 5.0 | 0.00 | 0.00 | 0.00 | 85 | 1012.1 |
| 20260505123422 | 29 | 354 | 3.0 | 5.0 | 0.00 | 0.00 | 0.00 | 86 | 1012.1 |
| 20260505122918 | 29 | 285 | 3.0 | 5.0 | 0.00 | 0.00 | 0.00 | 86 | 1012.0 |
| 20260505122416 | 29 | 200 | 0.0 | 2.0 | 0.00 | 0.00 | 0.00 | 86 | 1011.9 |
| 20260505121912 | 28 | 199 | 1.0 | 5.0 | 0.00 | 0.00 | 0.00 | 86 | 1011.9 |
| 20260505121409 | 28 | 321 | 1.0 | 7.0 | 0.00 | 0.00 | 0.00 | 86 | 1011.8 |
| 20260505120905 | 28 | 311 | 2.0 | 3.0 | 0.00 | 0.00 | 0.00 | 85 | 1011.7 |
| 20260505120402 | 29 | 240 | 2.0 | 8.0 | 0.00 | 0.00 | 0.00 | 84 | 1011.8 |
| 20260505115900 | 29 | 244 | 2.0 | 5.0 | 0.00 | 0.00 | 0.00 | 83 | 1011.7 |
| 20260505115357 | 29 | 269 | 4.0 | 6.0 | 0.00 | 0.00 | 0.00 | 82 | 1011.7 |
| 20260505114855 | 29 | 225 | 2.0 | 5.0 | 0.00 | 0.00 | 0.00 | 81 | 1011.7 |
| 20260505114351 | 29 | 256 | 3.0 | 5.0 | 0.00 | 0.00 | 0.00 | 80 | 1011.4 |
| 20260505113848 | 29 | 264 | 3.0 | 5.0 | 0.00 | 0.00 | 0.00 | 80 | 1011.7 |
| 20260505113344 | 29 | 319 | 3.0 | 3.0 | 0.00 | 0.00 | 0.00 | 79 | 1011.7 |
| 20260505112840 | 29 | 171 | 1.0 | 3.0 | 0.00 | 0.00 | 0.00 | 78 | 1011.2 |
| 20260505112338 | 29 | 256 | 1.0 | 3.0 | 0.00 | 0.00 | 0.00 | 78 | 1011.4 |
| 20260505111833 | 29 | 274 | 3.0 | 5.0 | 0.00 | 0.00 | 0.00 | 78 | 1011.4 |
| 20260505111329 | 29 | 249 | 1.0 | 2.0 | 0.00 | 0.00 | 0.00 | 78 | 1011.2 |
| 20260505110825 | 29 | 270 | 3.0 | 3.0 | 0.00 | 0.00 | 0.00 | 78 | 1011.2 |
| 20260505110323 | 29 | 264 | 1.0 | 5.0 | 0.00 | 0.00 | 0.00 | 78 | 1011.2 |
| 20260505101757 | 29 | 274 | 3.0 | 3.0 | 0.00 | 0.00 | 0.00 | 77 | 1011.0 |
| 20260505101253 | 29 | 273 | 1.0 | 6.0 | 0.00 | 0.00 | 0.00 | 76 | 1010.9 |
| 20260505100749 | 29 | 202 | 0.0 | 3.0 | 0.00 | 0.00 | 0.00 | 76 | 1011.1 |
| 20260505100246 | 29 | 66 | 1.0 | 5.0 | 0.00 | 0.00 | 0.00 | 76 | 1011.0 |
| 20260505095741 | 29 | 276 | 2.0 | 5.0 | 0.00 | 0.00 | 0.00 | 76 | 1010.9 |
| 20260505095240 | 29 | 353 | 4.0 | 5.0 | 0.00 | 0.00 | 0.00 | 76 | 1010.8 |
| 20260505094735 | 29 | 123 | 3.0 | 6.0 | 0.00 | 0.00 | 0.00 | 76 | 1011.0 |
| 20260505094232 | 29 | 236 | 1.0 | 5.0 | 0.00 | 0.00 | 0.00 | 76 | 1010.6 |
| 20260505093728 | 29 | 230 | 1.0 | 5.0 | 0.00 | 0.00 | 0.00 | 76 | 1010.8 |
| 20260505093225 | 29 | 277 | 4.0 | 10.0 | 0.00 | 0.00 | 0.00 | 75 | 1010.8 |
| 20260505092722 | 29 | 329 | 3.0 | 5.0 | 0.00 | 0.00 | 0.00 | 75 | 1010.7 |
| 20260505092221 | 29 | 126 | 3.0 | 5.0 | 0.00 | 0.00 | 0.00 | 75 | 1010.7 |
| 20260505091718 | 29 | 354 | 2.0 | 8.0 | 0.00 | 0.00 | 0.00 | 75 | 1010.6 |
| 20260505091216 | 29 | 27 | 5.0 | 7.0 | 0.00 | 0.00 | 0.00 | 74 | 1010.8 |
| 20260505090713 | 29 | 283 | 2.0 | 5.0 | 0.00 | 0.00 | 0.00 | 75 | 1010.6 |
| 20260505090211 | 29 | 206 | 2.0 | 7.0 | 0.00 | 0.00 | 0.00 | 75 | 1010.6 |
| 20260505085708 | 29 | 287 | 2.0 | 7.0 | 0.00 | 0.00 | 0.00 | 75 | 1010.4 |
| 20260505085206 | 29 | 214 | 2.0 | 6.0 | 0.00 | 0.00 | 0.00 | 75 | 1010.3 |
| 20260505084703 | 29 | 221 | 0.0 | 2.0 | 0.00 | 0.00 | 0.00 | 76 | 1010.3 |
| 20260505084202 | 29 | 26 | 2.0 | 6.0 | 0.00 | 0.00 | 0.00 | 75 | 1010.2 |
| 20260505083659 | 29 | 301 | 4.0 | 8.0 | 0.00 | 0.00 | 0.00 | 75 | 1010.3 |
| 20260505083155 | 29 | 293 | 1.0 | 2.0 | 0.00 | 0.00 | 0.00 | 75 | 1010.2 |
| 20260505082651 | 29 | 285 | 2.0 | 5.0 | 0.00 | 0.00 | 0.00 | 76 | 1010.1 |
| 20260505082148 | 29 | 319 | 3.0 | 5.0 | 0.00 | 0.00 | 0.00 | 76 | 1010.3 |
| 20260505081644 | 29 | 350 | 2.0 | 7.0 | 0.00 | 0.00 | 0.00 | 76 | 1010.1 |
| 20260505081142 | 29 | 332 | 4.0 | 6.0 | 0.00 | 0.00 | 0.00 | 76 | 1010.3 |
| 20260505080639 | 29 | 184 | 1.0 | 2.0 | 0.00 | 0.00 | 0.00 | 76 | 1010.3 |
| 20260505080135 | 29 | 284 | 2.0 | 5.0 | 0.00 | 0.00 | 0.00 | 76 | 1010.1 |
| 20260505075631 | 29 | 251 | 1.0 | 2.0 | 0.00 | 0.00 | 0.00 | 77 | 1010.3 |
| 20260505075128 | 29 | 290 | 4.0 | 7.0 | 0.00 | 0.00 | 0.00 | 77 | 1010.1 |
| 20260505074625 | 29 | 358 | 1.0 | 3.0 | 0.00 | 0.00 | 0.00 | 78 | 1010.2 |
| 20260505074122 | 29 | 3 | 2.0 | 6.0 | 0.00 | 0.00 | 0.00 | 79 | 1010.1 |
| 20260505073620 | 29 | 201 | 1.0 | 5.0 | 0.00 | 0.00 | 0.00 | 79 | 1010.2 |
| 20260505073118 | 29 | 108 | 3.0 | 6.0 | 0.00 | 0.00 | 0.00 | 81 | 1010.4 |
| 20260505072613 | 29 | 230 | 2.0 | 5.0 | 0.00 | 0.00 | 0.00 | 82 | 1010.4 |
| 20260505072110 | 29 | 329 | 2.0 | 5.0 | 0.00 | 0.00 | 0.00 | 82 | 1010.3 |
| 20260505071605 | 29 | 200 | 2.0 | 6.0 | 0.00 | 0.00 | 0.00 | 83 | 1010.1 |